Location: Elende
(51.4317°N, 10.6316°E)
Time: 11:16:59
(UTC+00:00)

Cosmos 2082 Rocket - Pass Details

Date: 18 September 2020
Orbit: 834 x 853 km, 71.0° (Epoch: 25 October)

Event Time Altitude Azimuth Distance (km) Brightness Sun altitude
Rises 18:54:23 0° 329° (NNW) 3,394 6.2 -14.5°
Reaches altitude 10° 18:57:35 10° 347° (NNW) 2,457 5.1 -15.0°
Maximum altitude 19:01:32 19° 32° (NNE) 1,892 3.9 -15.6°
Enters shadow 19:04:27 13° 68° (ENE) 2,215 4.0 -16.0°
